Location: Ferchesar
(52.6477°N, 12.4298°E)
Time: 00:13:31
(UTC+01:00)

Transit 2A Rocket - Pass Details

Date: 16 December 2021
Orbit: 584 x 918 km, 66.7° (Epoch: 21 January)

Event Time Altitude Azimuth Distance (km) Brightness Sun altitude
Exits shadow 04:04:23 22° 137° (SE) 1,833 7.2 -36.6°
Maximum altitude 04:06:16 26° 109° (ESE) 1,690 7.1 -36.3°
Drops below altitude 10° 04:11:09 10° 56° (NE) 2,609 8.4 -35.6°
Sets 04:14:06 0° 44° (NE) 3,566 9.1 -35.1°
